Home   Weather   Oxford   Past weeks

Flag for United Kingdom Past Weather in Oxford, England, United Kingdom — Yesterday and Last 2 Weeks

Now
32 °F

Fog.


Feels Like: 32 °F
Forecast: 30 / 50 °F
Wind: 2 mph from Northwest

Location: Benson

Current Time: Apr 26, 2017 at 3:32:24 am

Latest Report: Apr 26, 2017 at 2:50 am


Visibility: N/A

Pressure: 30.01 "Hg

Humidity: 100%

Dew Point: 32 °F

Location of OxfordLocation

Past Weather in Oxford — Graph

°F

Oxford Temperature Yesterday

Maximum temperature yesterday: 50 °F (at 2:50 pm)
Minimum temperature yesterday: 30 °F (at 4:50 am)
Average temperature yesterday: 40 °F

High & Low Weather Summary for the Past Weeks

 TemperatureHumidityPressure
High59 °F (Apr 11, 2:50 pm)100% (Apr 18, 1:50 am)30.63 "Hg (Apr 18, 1:50 am)
Low30 °F (Apr 18, 2:50 am)31% (Apr 19, 5:50 pm)29.89 "Hg (Apr 24, 4:50 pm)
Average48 °F71%30.24 "Hg
* Reported Apr 11 1:50 am — Apr 26 1:50 am, Oxford, Weather by CustomWeather, © 2017

Note: Actual official high and low records may vary slightly from our data, if they occured in-between our weather recording intervals... More about our weather records

Advertising

Oxford Weather History for the Previous 24 Hours

Scroll right to see more
 ConditionsComfort  
Time TempWeatherWind HumidityBarometerVisibility
1:50 am
Wed, Apr 26
32 °FPassing clouds.1 mph100%30.01 "Hg1 mi
12:50 am30 °FPassing clouds.2 mph100%30.01 "Hg1 mi
11:50 pm
Tue, Apr 25
32 °FFog.1 mph100%30.01 "HgN/A
10:50 pm34 °FFog.1 mph100%30.01 "HgN/A
9:50 pm36 °FPassing clouds.1 mph100%30.01 "HgN/A
8:50 pm37 °FPassing clouds.3 mph93%29.98 "HgN/A
7:50 pm39 °FSprinkles. Partly sunny.9 mph87%29.98 "Hg5 mi
6:50 pm41 °FSprinkles. Partly sunny.6 mph81%29.95 "HgN/A
5:50 pm45 °FScattered clouds.3 mph66%29.95 "HgN/A
4:50 pm48 °FScattered showers. Partly sunny.12 mph43%29.95 "HgN/A
3:50 pm46 °FScattered showers. Scattered clouds.15 mph43%29.92 "HgN/A
2:50 pm50 °FScattered clouds.12 mph32%29.95 "HgN/A
1:50 pm48 °FSunny.10 mph34%29.95 "Hg10 mi
12:50 pm48 °FSunny.12 mph34%29.95 "Hg10 mi
11:50 am46 °FPartly sunny.9 mph40%29.95 "HgN/A
10:50 am43 °FScattered clouds.9 mph49%29.95 "HgN/A
9:50 am43 °FScattered clouds.7 mph53%29.95 "HgN/A
8:50 am41 °FPassing clouds.8 mph61%29.95 "HgN/A
7:50 am39 °FPartly sunny.6 mph65%29.95 "HgN/A
6:50 am36 °FScattered clouds.6 mph70%29.92 "HgN/A
5:50 am32 °FBroken clouds.2 mph80%29.92 "HgN/A
4:50 am30 °FPassing clouds.2 mph75%29.92 "HgN/A
3:50 am34 °FClear.3 mph70%29.92 "Hg10 mi
Weather by CustomWeather, © 2017

See weather overviewHow to use our weather pages